Location: Unspecified
(0.0000°N, 0.0000°E)
Time: 00:13:16
(UTC+00:00)

Transit 2A - All Passes

Search period start: 16 September 2019 00:00
Search period end: 26 September 2019 00:00
Orbit: 598 x 960 km, 66.7° (Epoch: 15 September)

Date Brightness Start Highest point End Pass type
(mag) Time Alt. Az. Time Alt. Az. Time Alt. Az.
16 Sep - 00:37:51 10° SE 00:39:42 11° ESE 00:41:32 10° E night (unlit)
16 Sep - 02:16:34 10° SSW 02:22:51 63° WNW 02:28:52 10° N night (unlit)
16 Sep - 13:10:31 10° NNE 13:13:45 21° ENE 13:17:04 10° ESE daylight
16 Sep - 14:54:01 10° WNW 14:56:37 15° WSW 14:59:17 10° SSW daylight
17 Sep - 01:42:24 10° SSW 01:48:47 83° ESE 01:54:53 10° NNE night (unlit)
17 Sep - 12:38:26 10° NE 12:39:42 11° ENE 12:40:58 10° E daylight
17 Sep - 14:18:48 10° NW 14:22:29 27° WSW 14:26:22 10° S daylight
18 Sep - 01:08:32 10° S 01:14:42 52° ESE 01:20:37 10° NE night (unlit)
18 Sep - 02:54:38 10° W 02:57:38 14° WNW 03:00:34 10° NW night (unlit)
18 Sep - 13:44:13 10° NW 13:48:24 51° WSW 13:52:49 10° S daylight
19 Sep - 00:34:58 10° S 00:40:36 33° ESE 00:46:01 10° NE night (unlit)
19 Sep - 02:18:48 10° WSW 02:23:34 23° WNW 02:28:11 10° NNW night (unlit)
19 Sep - 13:10:02 10° NNW 13:14:21 83° ENE 13:18:53 10° SSE daylight
20 Sep - 00:01:51 10° SSE 00:06:28 21° ESE 00:10:57 10° ENE night (unlit)
20 Sep - 01:43:49 10° SW 01:49:31 36° WNW 01:54:59 10° N night (unlit)
20 Sep - 12:36:12 10° N 12:40:18 43° ENE 12:44:35 10° SE daylight
20 Sep - 23:29:41 10° SE 23:32:19 13° ESE 23:34:54 10° E night (unlit)
21 Sep - 01:09:15 10° SSW 01:15:28 57° WNW 01:21:22 10° N night (unlit)
21 Sep - 12:02:47 10° NNE 12:06:15 23° ENE 12:09:51 10° SE daylight
21 Sep - 13:46:55 10° W 13:49:09 14° WSW 13:51:27 10° SW daylight
22 Sep - 00:35:02 10° SSW 00:41:24 89° WNW 00:47:27 10° NNE night (unlit)
22 Sep - 11:30:14 10° NE 11:32:13 13° ENE 11:34:13 10° E daylight
22 Sep - 13:11:28 10° NW 13:15:01 25° WSW 13:18:45 10° SSW daylight
23 Sep - 00:01:05 10° S 00:07:19 58° ESE 00:13:15 10° NNE night (unlit)
23 Sep - 01:47:58 10° W 01:50:13 12° WNW 01:52:27 10° NW night (unlit)
23 Sep - 12:36:47 10° NW 12:40:55 45° WSW 12:45:19 10° S daylight
23 Sep - 23:27:27 10° S 23:33:12 36° ESE 23:38:44 10° NE night (unlit)
24 Sep - 01:11:43 10° WSW 01:16:10 20° WNW 01:20:27 10° NNW night (unlit)
24 Sep - 12:02:31 10° NNW 12:06:51 86° WSW 12:11:26 10° SSE daylight
24 Sep - 22:54:13 10° SSE 22:59:04 23° ESE 23:03:47 10° ENE night (unlit)
25 Sep - 00:36:35 10° SW 00:42:07 32° WNW 00:47:23 10° N night (unlit)
25 Sep - 11:28:37 10° N 11:32:48 49° ENE 11:37:13 10° SE daylight
25 Sep - 22:21:44 10° SE 22:24:56 14° ESE 22:28:03 10° E night (unlit)
